Temperature
23 22 22 21 21 20 20 20 19 19 19 19 19 19 18 18 18 18 18 18 18 18 18 18 18 18 18 18 18 18 18 18 18 18 18 18 18 18 18 18 18 18 17
23 22 22 21 21 20 20 20 20 19 19 19 19 19 19 18 18 18 18 18 18 18 18 18 18 18 18 18 18 18 18 18 18 18 19 19 19 18 18 18 18 18 17
24 23 22 21 21 20 20 20 20 20 19 19 19 19 19 19 19 18 18 18 18 18 18 18 18 18 18 18 18 18 17 18 18 18 18 19 19 19 18 18 18 17 17
24 23 22 21 21 21 20 20 20 20 20 19 19 19 19 19 18 18 18 18 18 18 18 18 18 18 17 18 17 17 17 17 18 18 17 18 18 18 19 18 18 17 17
24 23 22 22 21 21 20 20 20 20 20 20 19 19 19 19 18 18 18 18 18 18 18 18 18 18 17 17 17 17 17 17 17 17 17 17 17 18 18 18 18 18 17
24 23 22 21 21 21 20 20 20 20 20 19 19 19 19 19 18 18 18 18 18 18 18 17 17 17 17 17 17 17 17 17 17 17 17 17 17 18 18 18 18 18 18
24 23 22 21 21 21 20 20 20 19 19 19 19 19 19 18 18 18 18 18 18 18 17 17 17 17 17 17 17 17 17 17 17 17 17 17 17 17 17 17 18 17 17
24 23 22 21 21 21 20 20 19 19 19 19 19 19 19 18 18 18 18 18 18 17 17 17 17 17 17 17 17 16 16 16 16 16 16 16 16 16 16 16 17 17 18
24 23 22 21 21 21 20 20 19 19 19 19 19 19 19 18 18 18 18 18 17 17 17 17 17 17 17 17 17 16 16 16 16 16 16 16 16 16 16 16 16 16 17
23 23 22 21 21 20 20 20 19 19 19 19 19 18 18 18 18 18 18 18 17 17 17 17 17 16 16 16 16 16 16 16 15 15 15 15 15 16 15 15 15 15 16
24 23 22 21 20 20 20 20 19 19 19 19 19 18 18 18 18 18 17 17 17 17 17 17 17 16 16 16 16 16 16 15 15 15 15 15 15 15 15 15 15 15 15
23 23 22 21 21 20 20 20 19 19 19 18 18 18 18 18 17 17 17 17 17 17 17 17 16 16 16 16 15 15 15 15 15 15 15 15 15 15 15 15 15 15 15
23 22 21 21 20 20 20 19 19 19 19 18 18 18 18 17 17 17 17 17 16 16 16 16 16 16 16 15 15 15 15 15 14 14 14 14 14 14 14 14 14 15 15
22 21 21 20 20 19 19 19 19 19 18 18 18 18 17 17 17 17 16 16 16 16 16 16 16 16 16 15 15 15 15 14 14 14 14 14 14 14 14 14 14 14 14
22 21 20 20 20 19 19 19 19 18 18 18 18 17 17 17 17 16 16 16 16 16 16 15 15 15 15 15 15 15 14 14 14 14 14 14 14 14 14 14 14 14 14
22 21 20 19 19 19 19 18 18 18 17 17 17 17 17 16 16 16 16 16 16 15 15 15 15 15 15 15 15 15 14 14 14 14 14 14 14 14 14 14 14 13 13
21 20 20 19 18 18 18 18 17 17 17 17 17 16 16 16 16 16 15 15 15 15 15 15 14 14 14 14 14 14 14 14 14 13 13 14 14 13 13 13 13 13 13
20 20 19 19 18 18 17 17 17 16 16 16 16 16 16 15 15 15 15 15 15 15 15 14 14 14 14 14 14 14 14 13 13 13 13 13 13 13 13 13 13 13 13
19 19 19 18 18 17 17 17 16 16 16 15 15 15 15 15 15 15 15 14 14 14 14 14 14 14 14 14 14 14 13 13 13 13 13 13 13 13 13 13 12 12 12
19 18 18 18 17 17 16 16 16 16 15 15 15 15 15 15 15 14 14 14 14 14 14 13 13 13 13 13 13 13 13 13 13 13 13 13 13 13 13 12 12 12 12
18 18 17 17 17 16 16 16 16 15 15 15 14 14 14 14 14 14 14 13 13 13 13 13 13 13 13 13 13 13 13 12 13 13 13 13 13 12 12 12 12 12 12
17 17 17 17 16 16 16 16 15 15 14 14 14 14 14 14 14 13 13 13 13 13 13 13 13 13 13 13 12 12 12 12 12 12 12 12 12 12 12 12 12 12 12
17 17 16 16 16 15 15 15 15 14 14 14 14 14 13 13 13 13 13 13 13 13 13 13 13 13 12 12 12 12 12 12 12 12 12 12 12 12 12 12 12 11 12
16 16 16 16 15 15 15 14 14 14 14 13 13 13 13 13 13 13 13 13 13 13 13 13 12 12 12 12 12 12 11 11 11 11 11 11 11 11 11 11 11 11 11
16 16 15 15 15 14 14 14 14 14 13 13 13 13 13 13 13 12 12 12 12 12 12 12 12 12 12 11 11 11 11 11 11 11 11 11 11 11 11 11 11 11 11
16 15 15 15 14 14 13 13 13 13 13 13 13 13 13 13 12 12 12 12 12 11 12 11 11 11 11 11 11 11 11 11 11 10 10 11 11 11 11 11 11 11 11
Wind_Speed
5 5 5 4 3 3 2 1 1 2 1 1 1 1 2 2 2 2 3 3 3 2 2 2 2 1 2 2 2 1 1 1 1 1 1 1 2 2 1 0 1 1 0
6 5 5 4 4 3 3 2 2 2 1 1 1 1 1 1 2 2 3 3 3 2 2 2 1 2 2 2 2 1 1 1 1 2 2 0 2 2 2 1 1 0 0
6 6 6 5 4 3 3 2 2 2 2 1 1 1 2 1 1 1 1 2 2 2 2 2 2 2 1 2 2 1 1 2 1 2 2 2 1 1 2 1 0 1 1
7 7 6 5 4 4 3 3 3 2 2 2 2 2 1 0 0 0 1 1 1 1 1 1 1 1 1 1 1 2 1 2 1 0 1 2 2 2 1 2 1 1 1
8 7 7 6 5 4 4 4 3 3 2 2 2 3 2 1 1 1 1 0 1 0 0 0 1 1 1 1 2 2 3 2 2 2 1 1 2 3 3 2 2 1 1
8 8 7 6 5 4 4 4 4 3 3 3 3 3 2 2 1 1 0 1 1 0 0 0 1 1 1 1 1 2 2 3 3 3 3 2 2 2 3 3 3 3 2
7 8 7 6 5 5 4 4 4 3 3 3 3 3 3 3 3 2 1 2 1 1 0 1 1 2 1 1 1 1 2 2 3 3 3 3 3 3 4 4 4 3 2
6 6 6 6 5 5 5 4 4 3 3 3 3 3 3 3 2 2 2 2 2 1 1 0 1 1 2 2 1 2 1 2 3 3 3 3 2 3 3 4 4 5 3
6 6 6 5 5 5 5 5 4 4 3 3 2 2 2 2 2 2 2 2 2 1 1 1 1 1 1 2 2 1 2 2 3 2 2 3 2 2 3 3 4 5 4
6 6 5 5 4 5 5 4 4 3 3 2 2 2 2 2 2 2 2 2 1 1 1 1 1 1 1 1 2 1 1 2 2 2 3 3 3 3 3 3 3 4 4
6 6 5 5 4 4 4 4 4 3 3 2 2 2 2 2 2 1 1 1 1 1 1 1 1 1 1 1 2 2 2 2 2 2 2 2 4 3 3 3 3 3 3
5 5 5 4 4 4 3 3 3 2 2 2 2 2 1 1 1 1 1 1 1 2 1 1 1 1 1 2 2 3 2 2 2 2 2 3 2 3 4 4 4 3 3
5 5 5 4 4 3 3 3 2 2 2 2 2 1 1 1 1 1 1 1 1 1 1 1 1 1 1 2 2 2 2 2 2 2 3 3 3 3 3 4 4 4 4
6 6 5 4 4 3 3 3 2 1 1 1 1 1 0 1 1 1 1 1 0 1 1 1 1 2 1 1 1 2 2 3 3 3 3 3 4 4 4 4 4 4 4
6 6 5 4 4 4 3 2 2 2 1 1 1 1 1 1 1 1 1 1 0 1 1 1 2 2 2 1 1 2 2 2 3 3 3 3 3 4 4 5 4 4 4
5 5 5 4 4 4 3 3 3 2 2 2 2 2 2 1 1 2 1 0 1 1 1 2 2 2 1 2 2 3 3 3 3 3 3 3 2 2 2 3 4 5 5
4 5 5 4 4 3 3 3 3 3 2 2 3 3 2 2 2 2 2 1 1 1 2 2 2 1 0 2 1 3 4 4 4 4 4 4 3 3 4 3 5 5 6
4 4 4 4 4 4 4 3 3 3 3 2 3 3 3 3 2 2 2 2 2 2 1 2 1 2 1 1 1 3 4 4 4 4 4 5 5 4 4 5 5 6 5
4 4 4 5 5 4 4 4 3 3 3 3 3 3 1 1 1 1 2 2 2 2 2 2 2 2 2 0 2 4 4 3 4 4 5 5 5 3 4 5 6 7 6
5 5 4 5 5 4 4 4 4 4 3 3 2 2 1 1 1 1 2 2 2 2 2 2 2 3 3 1 2 4 4 4 4 4 4 3 4 4 5 6 6 7 7
5 5 5 4 4 4 4 3 4 3 2 2 2 2 2 1 1 1 1 2 2 2 2 2 2 2 3 1 1 3 4 4 5 4 4 3 1 3 5 6 6 7 8
6 5 5 4 4 4 3 3 3 2 2 1 1 2 1 1 1 1 1 1 2 2 2 2 3 2 2 2 1 2 4 6 5 5 5 3 1 4 6 6 6 8 8
5 4 4 4 4 3 2 2 2 2 1 1 1 1 1 2 2 1 1 2 2 3 3 3 3 3 2 1 2 3 5 6 5 4 4 5 5 5 5 6 7 7 6
5 4 4 4 4 3 3 2 2 1 1 1 1 1 1 1 2 2 2 2 3 3 3 3 4 3 3 3 3 3 3 4 4 5 4 5 6 6 6 5 4 4 5
5 4 4 4 4 3 3 2 2 1 1 1 1 1 1 1 2 2 2 2 3 3 3 4 4 4 4 4 6 5 5 5 5 5 4 4 4 4 4 4 4 4 4
5 4 4 4 3 3 2 2 2 1 1 1 1 2 1 1 2 2 2 3 2 1 1 3 4 3 3 4 5 6 6 6 6 5 4 4 4 4 5 5 4 4 4
Wind_Direction
167 164 164 160 152 146 144 137 114 105 113 106 103 93 94 86 73 66 61 59 54 58 42 40 67 52 68 57 53 43 93 24 333 268 171 155 147 122 125 78 26 96 171
161 165 168 167 164 163 167 168 167 149 162 126 116 90 68 84 84 69 71 63 59 43 56 47 36 60 75 78 57 39 348 29 19 320 307 200 159 171 129 121 147 13 303
173 170 174 176 176 176 179 176 176 174 187 191 177 145 148 148 111 92 90 67 57 57 42 38 23 40 46 63 39 25 7 339 351 354 325 310 357 348 155 150 113 6 349
182 176 177 179 185 184 178 179 183 181 188 196 196 194 189 161 87 136 93 85 76 63 56 36 32 19 32 51 343 45 355 329 330 10 340 333 342 301 276 193 171 200 293
187 182 181 179 184 180 178 175 177 185 192 198 193 209 215 203 188 173 130 185 122 87 9 12 3 359 14 33 3 352 334 333 332 327 308 286 258 267 283 295 293 260 248
188 185 183 181 184 181 182 177 171 184 195 199 200 213 224 232 243 240 220 223 185 194 5 323 329 318 347 2 316 317 333 334 331 314 308 304 299 306 298 288 288 294 287
186 185 185 187 188 184 187 187 180 191 199 200 209 215 226 227 229 242 233 265 273 270 13 348 343 339 352 334 298 278 319 320 315 305 309 313 315 316 306 297 301 298 287
176 175 176 182 187 185 189 190 182 191 196 198 205 217 225 234 236 230 261 258 275 300 6 332 325 334 322 316 305 298 300 311 308 313 314 304 317 308 311 306 303 296 289
159 161 164 170 185 185 186 189 186 186 194 193 192 197 213 241 260 242 245 260 272 273 248 255 263 284 302 312 288 315 327 318 302 303 294 298 309 300 301 301 300 300 299
151 154 158 167 183 183 177 182 191 188 192 189 204 188 195 211 233 247 265 282 275 278 255 248 264 285 299 308 292 285 300 291 299 309 326 313 314 310 298 296 294 295 296
151 151 155 164 174 175 172 177 189 188 185 187 195 213 214 204 214 233 251 248 247 232 237 241 270 294 302 297 291 299 298 290 305 307 312 312 313 306 303 298 291 287 285
149 147 147 152 158 160 160 170 182 188 191 191 201 205 213 234 234 228 261 258 235 228 220 222 236 268 284 289 287 293 295 294 306 312 312 309 302 301 303 304 298 294 284
141 135 129 130 135 134 136 146 165 184 183 178 187 191 218 250 269 288 292 278 247 225 216 211 230 253 275 287 285 284 275 284 298 307 305 303 305 305 310 305 306 298 289
141 135 131 127 120 114 117 129 135 132 119 119 134 120 92 313 318 342 319 295 262 240 229 223 235 247 254 267 282 281 280 286 291 293 292 299 303 305 307 303 303 302 296
144 140 138 129 123 114 108 102 95 84 89 107 89 65 40 36 24 21 17 25 336 279 265 254 252 254 244 263 264 264 268 276 282 286 293 304 323 335 321 316 319 313 300
149 144 138 131 123 115 110 102 93 91 91 89 77 60 43 39 27 9 14 331 291 294 287 280 266 259 261 69 23 297 276 273 275 281 287 289 286 289 260 288 302 304 294
148 144 138 131 125 118 110 104 94 90 89 81 63 48 27 18 13 357 357 334 297 281 268 266 260 257 310 73 19 305 281 281 284 285 287 292 304 293 294 261 240 258 258
145 140 135 130 120 111 107 100 93 84 77 69 61 44 23 11 5 352 341 320 302 283 268 259 259 259 258 128 260 284 266 274 283 288 286 289 298 303 306 296 290 284 277
138 133 134 127 119 116 112 108 95 79 66 49 41 34 24 19 359 340 322 313 309 293 282 276 275 272 277 269 272 278 264 266 278 286 290 287 288 337 319 291 289 290 286
133 131 128 122 119 117 118 115 97 79 60 44 35 32 31 36 2 321 303 308 298 286 283 298 293 284 284 283 290 287 276 280 286 287 288 298 302 324 314 292 291 291 295
126 123 118 112 111 115 116 107 91 75 59 54 29 22 30 17 343 330 311 301 298 308 296 293 288 289 295 274 266 289 289 292 289 290 290 301 19 301 297 290 287 291 293
124 122 116 109 108 114 120 111 91 73 56 50 32 19 5 338 23 7 333 319 304 288 279 282 288 290 291 296 247 250 275 293 289 290 294 308 318 284 281 285 289 285 284
125 123 120 115 109 111 114 107 89 84 71 42 26 8 357 347 354 351 348 322 308 307 315 309 312 322 326 318 196 231 253 267 274 290 309 304 276 268 266 262 271 275 281
126 123 120 114 102 92 85 90 99 94 78 35 8 350 345 354 5 340 342 336 328 319 320 321 322 321 326 333 331 308 283 251 261 282 270 251 254 263 282 289 275 281 291
128 128 122 113 103 95 89 90 90 80 30 2 355 338 347 359 341 336 342 322 339 334 312 316 318 318 319 347 350 326 317 315 317 302 287 287 292 293 293 299 305 300 301
132 128 120 115 112 104 92 82 80 70 355 332 325 325 329 343 322 325 336 15 340 15 284 310 308 328 351 342 333 326 322 316 313 300 290 292 294 299 302 304 308 305 302
Height
1519 1520 1521 1522 1522 1522 1522 1522 1522 1522 1521 1522 1522 1521 1521 1521 1521 1521 1520 1520 1519 1519 1518 1519 1518 1517 1517 1517 1517 1517 1517 1517 1516 1517 1516 1516 1515 1515 1514 1514 1514 1514 1513
1518 1519 1521 1521 1522 1522 1522 1522 1522 1522 1522 1522 1522 1522 1522 1522 1521 1521 1520 1520 1520 1519 1519 1518 1518 1517 1517 1517 1516 1516 1517 1517 1516 1516 1516 1515 1516 1515 1514 1514 1513 1513 1513
1516 1518 1520 1521 1521 1522 1522 1522 1522 1522 1522 1522 1522 1522 1522 1522 1522 1521 1521 1520 1520 1519 1519 1518 1518 1517 1517 1517 1516 1516 1516 1516 1516 1516 1516 1515 1514 1514 1514 1513 1513 1512 1511
1514 1516 1518 1519 1520 1521 1522 1521 1521 1521 1521 1521 1522 1522 1522 1522 1521 1521 1521 1520 1520 1519 1519 1518 1518 1517 1517 1517 1517 1516 1516 1515 1516 1515 1514 1515 1514 1514 1513 1513 1512 1511 1510
1512 1514 1516 1518 1519 1520 1520 1520 1520 1520 1520 1520 1521 1521 1521 1521 1521 1521 1520 1520 1520 1519 1519 1518 1517 1517 1517 1516 1516 1515 1515 1515 1515 1514 1514 1514 1513 1513 1513 1512 1511 1510 1509
1510 1512 1515 1516 1518 1518 1519 1520 1519 1519 1519 1519 1520 1520 1520 1520 1520 1520 1520 1520 1520 1519 1518 1518 1517 1516 1516 1515 1515 1514 1514 1513 1513 1513 1513 1513 1513 1512 1511 1511 1510 1509 1509
1508 1510 1513 1514 1516 1517 1518 1518 1518 1518 1518 1519 1518 1518 1519 1519 1519 1519 1519 1519 1519 1519 1517 1517 1516 1515 1515 1514 1514 1513 1513 1512 1512 1512 1512 1512 1511 1511 1510 1509 1508 1507 1507
1506 1509 1511 1512 1514 1515 1516 1517 1517 1517 1517 1517 1517 1517 1517 1518 1519 1518 1518 1518 1518 1518 1516 1515 1515 1515 1514 1513 1513 1513 1512 1511 1511 1511 1510 1510 1509 1509 1508 1508 1507 1506 1505
1505 1507 1509 1511 1512 1513 1514 1515 1515 1515 1516 1516 1516 1516 1516 1516 1516 1516 1516 1516 1516 1516 1515 1514 1514 1513 1513 1512 1511 1511 1510 1510 1510 1510 1509 1509 1508 1507 1507 1506 1506 1506 1504
1504 1506 1508 1509 1510 1511 1513 1514 1514 1514 1514 1514 1515 1515 1515 1514 1514 1514 1514 1514 1514 1513 1513 1513 1513 1512 1512 1511 1510 1510 1509 1508 1508 1508 1507 1506 1506 1505 1505 1504 1504 1503 1503
1503 1505 1507 1508 1509 1510 1511 1512 1513 1513 1513 1513 1513 1513 1513 1513 1513 1513 1512 1512 1512 1511 1511 1511 1511 1510 1510 1509 1509 1509 1508 1507 1506 1506 1506 1505 1504 1504 1503 1502 1501 1501 1500
1503 1504 1506 1507 1508 1509 1510 1510 1511 1512 1512 1512 1512 1512 1512 1512 1511 1511 1510 1510 1510 1510 1509 1509 1509 1509 1508 1508 1508 1507 1507 1506 1505 1504 1504 1503 1503 1501 1501 1500 1499 1498 1497
1503 1504 1505 1507 1508 1508 1508 1509 1510 1511 1511 1511 1511 1510 1510 1510 1510 1509 1508 1508 1508 1508 1507 1507 1507 1506 1506 1506 1506 1506 1505 1504 1503 1503 1502 1501 1500 1499 1499 1497 1497 1496 1495
1502 1504 1505 1506 1507 1507 1508 1508 1509 1510 1509 1509 1509 1509 1508 1508 1508 1507 1507 1506 1506 1506 1505 1505 1505 1504 1504 1503 1503 1503 1503 1502 1501 1500 1500 1499 1498 1497 1496 1495 1494 1494 1493
1502 1503 1505 1506 1506 1506 1507 1507 1508 1508 1508 1508 1507 1507 1507 1506 1506 1505 1505 1505 1504 1504 1503 1503 1503 1502 1502 1501 1501 1501 1500 1500 1499 1498 1498 1497 1496 1494 1494 1493 1492 1491 1490
1501 1503 1504 1505 1505 1505 1506 1506 1506 1506 1506 1506 1506 1505 1505 1504 1504 1504 1503 1503 1503 1502 1502 1501 1500 1500 1500 1499 1499 1498 1498 1498 1497 1496 1495 1495 1493 1492 1491 1490 1489 1489 1488
1501 1502 1503 1504 1504 1505 1505 1505 1505 1505 1505 1505 1505 1504 1504 1504 1503 1503 1502 1501 1501 1500 1499 1499 1498 1498 1498 1497 1497 1496 1496 1495 1494 1494 1493 1493 1492 1490 1489 1488 1487 1486 1485
1501 1502 1502 1503 1504 1504 1504 1504 1504 1505 1505 1504 1504 1503 1503 1503 1502 1501 1501 1500 1499 1498 1497 1497 1496 1496 1495 1495 1494 1494 1493 1493 1492 1491 1490 1490 1489 1488 1486 1486 1484 1483 1482
1500 1501 1502 1502 1503 1503 1503 1503 1504 1504 1504 1504 1503 1503 1502 1502 1501 1500 1499 1498 1497 1496 1495 1495 1494 1494 1493 1493 1492 1491 1491 1490 1489 1489 1488 1487 1486 1485 1484 1483 1481 1480 1479
1499 1500 1501 1501 1502 1502 1502 1503 1503 1503 1503 1503 1503 1502 1501 1500 1500 1499 1498 1497 1496 1495 1494 1493 1492 1492 1491 1491 1490 1489 1489 1488 1487 1486 1485 1484 1483 1482 1481 1479 1478 1477 1476
1498 1499 1500 1500 1501 1501 1501 1502 1502 1502 1502 1502 1502 1501 1500 1499 1498 1497 1496 1495 1495 1494 1492 1491 1491 1490 1489 1488 1487 1486 1486 1485 1485 1484 1483 1482 1480 1479 1478 1476 1475 1474 1472
1498 1499 1499 1500 1500 1500 1501 1501 1501 1501 1501 1501 1500 1500 1499 1498 1497 1496 1495 1494 1493 1492 1491 1490 1489 1488 1487 1486 1485 1484 1483 1482 1482 1481 1481 1479 1478 1476 1475 1474 1472 1471 1469
1497 1498 1499 1499 1499 1500 1500 1500 1500 1500 1500 1500 1499 1498 1497 1497 1496 1495 1494 1493 1492 1491 1490 1489 1488 1487 1486 1484 1482 1481 1480 1479 1478 1478 1477 1476 1475 1473 1472 1471 1469 1468 1467
1496 1498 1498 1499 1499 1499 1499 1499 1499 1498 1498 1498 1498 1497 1496 1495 1494 1493 1493 1492 1491 1490 1489 1488 1486 1485 1484 1482 1480 1479 1478 1477 1476 1475 1474 1473 1472 1471 1470 1468 1467 1466 1464
1495 1497 1497 1498 1498 1498 1498 1498 1498 1497 1497 1497 1496 1496 1495 1494 1493 1492 1491 1490 1489 1488 1487 1485 1484 1483 1481 1480 1478 1477 1476 1475 1473 1472 1472 1471 1470 1468 1467 1466 1465 1463 1462
1494 1495 1496 1497 1497 1497 1498 1498 1497 1496 1496 1495 1495 1494 1494 1493 1492 1490 1489 1488 1487 1486 1484 1483 1482 1480 1478 1477 1475 1474 1473 1471 1470 1469 1469 1468 1467 1466 1465 1464 1462 1461 1459